Tracking 35274 objects as of 10-Sep-2026
HD Live streaming from Space Station
objects crossing your sky now

FREGAT DEB

Track FREGAT DEB now!
10-day predictions


NORAD ID: 45955
Int'l Code: 2011-037FL
Launch date: July 18, 2011
Source: Commonwealth of Independent States (former USSR) (CIS)
Launch site: TYURATAM MISSILE AND SPACE COMPLEX (TTMTR)

Note: This is SATELLITE DEBRIS
Your satellite tracking list
Your tracking list is empty




NASA's NSSDC Master Catalog

Two Line Element Set (TLE):
1 45955U 11037FL  26252.59011624 -.00016028  00000-0 -26668-1 0  9993
2 45955  51.4929   0.9430 1995034  47.0044 328.1576 10.47810696 26536
Source of the keplerian elements: AFSPC